[ hide orbit diagram ]
For accurate long-term ephemerides, please instead use our Horizons system.This orbit viewer was implemented using two-body methods, and hence should not be used for determining accurate long-term trajectories (over several years or decades) or planetary encounter circumstances.
Orbital Elements at Epoch 2459000.5 (2020-May-31.0) TDB
Reference: JPL 9 (heliocentric ecliptic J2000)
Element | Value | Uncertainty (1-sigma) | Units |
e | .3656950760536387 | 1.4567e-07 | |
a | 3.134938277603635 | 3.5382e-08 | au |
q | 1.988506785751911 | 4.7151e-07 | au |
i | 34.52744965997804 | 1.128e-05 | deg |
node | 57.16528769709515 | 1.528e-05 | deg |
peri | 151.6690803673137 | 2.6067e-05 | deg |
M | 165.6210750412298 | 1.7217e-05 | deg |
tp | 2458067.771993356883 (2017-Nov-10.27199336) | 8.5973e-05 | TDB |
period | 2027.411561650184 5.55 | 3.4323e-05 9.397e-08 | d yr |
n | .1775663150046273 | 3.0061e-09 | deg/d |
Q | 4.28136976945536 | 4.8322e-08 | au |
|
| | Orbit Determination Parameters
Additional Information
|
[ show covariance matrix ]
Physical Parameter Table
Parameter |
Symbol |
Value |
Units |
Sigma |
Reference |
Notes |
absolute magnitude |
H |
15.4 |
|
n/a |
MPO368961 |
|
|
452333 (2001 JO) Discovered 2001-May-02 by NEAT at Palomar |
Reference: | Last Updated: 2016-01-04 |
|
[ show close-approach data ]
|